Terminal Aerodrome Forecast
Issued by NWS Paducah, KY

Home | Current Version | Previous Version | Text Only | Print | Product List | Glossary On
Versions: 1 2 3 4 5 6 7 8 9 10 11 12 13 14 15 16
000
FTUS43 KPAH 280900 AAA
TAFPAH
TAF AMD
KPAH 280902Z 2809/2906 00000KT P6SM BKN070
      TEMPO 2810/2813 4SM BR
     FM281400 06005KT P6SM SCT050=

USA.gov is the U.S. government's official web portal to all federal, state and local government web resources and services.